Torna al catalogo

JASON

AttivoScienzaLEO
NORAD 26997·PAYLOAD·🇺🇸 United States

Lanciato Dec 7, 2001 da Vandenberg Space Force Base

Loading…

Prossimi Passaggi (prossime 24 ore)

TLE

AggiornatoSource: Space-Track

Epoca: Sep 14, 2026, 09:25 UTC

1 26997U 01055A   26257.39244211 -.00000058  00000-0  16639-4 0  9995
2 26997  66.0371 247.3318 0009411 271.4789 258.1914 12.84089371160087

Traccia JASON in tempo reale con AllMySat

Download on the App Store